Погода в Сурско-Михайловке

Украина / Днепропетровская область     48°16′47″N   34°43′39″E
темп.,
°C
ветер,
м/с
пор.,
м/с
влажн.,
%
обл.,
%
осадки,
мм/ч
давл.,
гПа
погр.,
м
21 апреля, ср
ср2100:00+8зсз61190100 0.1 1006410
03:00+6з51089100 0.1 1008249
06:00+6зюз499297 0.0 1011263
09:00+10зюз587693 0.0 1013620
12:00+14зюз685189 0.1 10142007
15:00+15зюз6842100 0.1 10142379
18:00+13зюз475511 0.4 10151184
21:00+10юз337032 0.5 101730
22 апреля, чт
чт2200:00+10зюз357733 0.0 1018124
03:00+7юз35895 0.0 101993
06:00+6юз34915 0.0 102071
09:00+12ююз45705 0.0 1021485
12:00+16ююз44533 0.3 10211467
15:00+17ююз444474 1.0 10202287
18:00+15ююз465257 0.0 1020594
21:00+12ю486482 0.0 1021189
23 апреля, пт
пт2300:00+11ююз5107613 0.0 1020301
03:00+8ююз49890 0.0 1020214
06:00+7ю410931 0.0 1020226
09:00+12ююз7106998 0.0 1020602
12:00+16ююз895274 0.0 10181298
15:00+17ююз81049100 0.1 10161922
18:00+16ююз7115294 0.1 10151406
21:00+12ююз61362100 0.1 1015522
24 апреля, сб
сб2400:00+10зюз51076100 0.0 1014756
03:00+6сз6888100 1.1 1015741
06:00+5зсз37905 0.0 1016288
09:00+9зсз57594 0.0 10171071
12:00+12з694170 0.0 10172222
15:00+11з101150100 0.2 10171951
18:00+10з7114445 0.1 10172297
21:00+6з495931 0.1 1019284
25 апреля, вс
вс2500:00+4з38713 0.0 1020208
03:00+3з38750 0.0 1020165
06:00+2зюз48760 0.0 1020184
09:00+7з57530 0.0 10201018
12:00+10з6837100 0.0 10192504
15:00+12з68335 0.0 10182423
18:00+11з573856 0.0 10182406
21:00+7з33543 0.0 101828